Terug naar catalogus

BLACKJACK ACES-2

ActiefMilitairSSO
NORAD 56955·PAYLOAD·🇺🇸 United States

Gelanceerd Jun 12, 2023 vanaf Vandenberg Space Force Base

Loading…

Volgende Passages (komende 24 uur)

TLE

VersSource: Space-Track

Epoch: Sep 13, 2026, 22:07 UTC

1 56955U 23084Z   26256.92183796  .00005271  00000-0  25689-3 0  9991
2 56955  97.6333  32.9693 0001893  67.1221 293.0212 15.18779182180642

Volg BLACKJACK ACES-2 in realtime met AllMySat

Download on the App Store